Weather in Velykyi Sambir

Ukraine / Sumi District     51°03′17″N   33°08′05″E
temp.,
°C
wind,
m/s
gust,
m/s
humid.,
%
clouds,
%
prec.,
mm/h
press.,
hPa
HPBL,
m
29 may, sun
sun2900:00+9w358543 0.0 101378
03:00+8sw2286100 0.0 101313
06:00+10sw3882100 0.0 1014265
09:00+13sw456570 0.0 1014656
12:00+15sw455612 0.0 10151574
15:00+17wsw45506 0.0 10151935
18:00+17w245976 0.0 10161769
21:00+11ene338312 0.1 101741
30 may, mon
mon3000:00+10ese358429 0.0 101874
03:00+9se358492 0.0 101878
06:00+10ese488894 0.0 1018191
09:00+15se697474 0.0 1017668
12:00+18se7969100 0.0 1016979
15:00+20sse71071100 0.0 10151310
18:00+17sse51191100 1.2 1014452
21:00+17sse4119472 2.8 1014293
31 may, tue
tue3100:00+15sse359688 1.8 101497
03:00+14s349856 4.4 101571
06:00+14nw229793 1.2 101571
09:00+17n228983 1.3 1016457
12:00+19nnw448298 0.2 1016689
15:00+19nnw668199 0.6 1017869
18:00+17nnw69745 0.1 1018742
21:00+13nnw47870 0.1 1018124
1 june, wed
wed100:00+11n38930 0.0 1020134
03:00+10nnw37910 0.0 1021105
06:00+11n36900 0.0 1021141
09:00+16nne35724 0.0 1021478
12:00+20ne3457100 0.0 10201076
15:00+21ene335415 0.0 10191293
18:00+21ese346727 0.0 10181023
21:00+16ene228310 0.0 101812
2 june, thu
thu200:00+14ne22895 0.0 101811
03:00+13e129046 0.0 101811
06:00+14e00895 0.0 101810
09:00+20w11725 0.0 1018398
12:00+23wsw22565 0.0 10181089
15:00+24wsw3457100 0.0 10171643
18:00+23w3568100 0.3 1017604
21:00+17nnw228363 0.3 101811